Tracking 18624 objects as of 26-April-2017
HD Live streaming from Space Station
objects crossing your sky now

COSMOS 1932

Track COSMOS 1932 now!
10-day predictions
COSMOS 1932 is classified as:


NORAD ID: 18957
Int'l Code: 1988-019A
Perigee: 927.7 km
Apogee: 1,016.7 km
Inclination: 65.0 °
Period: 104.4 minutes
Semi major axis: 7343 km
RCS: 2.9305 m2 (large)
Launch date: March 14, 1988
Source: Commonwealth of Independent States (former USSR) (CIS)
Launch site: TYURATAM MISSILE AND SPACE COMPLEX (TTMTR)
Your satellite tracking list
Your tracking list is empty





NASA's NSSDC Master Catalog

Two Line Element Set (TLE):
1 18957U 88019A   17114.96201305 -.00000097 +00000-0 -90523-5 0  9998
2 18957 065.0447 066.9102 0060545 277.8139 081.6048 13.79669302468325
Source of the keplerian elements: AFSPC